Time,TemperatureF,DewpointF,PressureIn,WindDirection,WindDirectionDegrees,WindSpeedMPH,WindSpeedGustMPH,Humidity,HourlyPrecipIn,Conditions,Clouds,dailyrainin,SoftwareType,DateUTC
2013-09-04 00:10:00,68.3,65.0,29.86,NNE,15,0.0,2.0,89,0.00,,,0.00,weatherlink.com 1.10,2013-09-04 04:10:00,
2013-09-04 00:25:00,67.5,65.0,29.86,NNE,15,0.0,1.0,92,0.00,,,0.00,weatherlink.com 1.10,2013-09-04 04:25:00,
2013-09-04 00:40:00,67.4,65.0,29.87,NNE,15,0.0,2.0,92,0.00,,,0.00,weatherlink.com 1.10,2013-09-04 04:40:00,
2013-09-04 00:55:00,67.0,65.0,29.86,NNE,15,0.0,1.0,93,0.00,,,0.00,weatherlink.com 1.10,2013-09-04 04:55:00,
2013-09-04 01:11:00,66.3,64.0,29.86,NNE,15,0.0,2.0,93,0.00,,,0.00,weatherlink.com 1.10,2013-09-04 05:11:00,
2013-09-04 01:26:00,66.0,64.0,29.87,NNE,15,0.0,2.0,94,0.00,,,0.00,weatherlink.com 1.10,2013-09-04 05:26:00,
2013-09-04 01:41:00,65.7,64.0,29.87,NNE,15,1.0,1.0,95,0.00,,,0.00,weatherlink.com 1.10,2013-09-04 05:41:00,
2013-09-04 01:56:00,65.7,64.0,29.86,NNE,27,1.0,4.0,95,0.00,,,0.00,weatherlink.com 1.10,2013-09-04 05:56:00,
2013-09-04 02:11:00,65.3,64.0,29.87,NE,35,3.0,4.0,95,0.00,,,0.00,weatherlink.com 1.10,2013-09-04 06:11:00,
2013-09-04 02:26:00,65.3,64.0,29.87,NNE,24,0.0,3.0,95,0.00,,,0.00,weatherlink.com 1.10,2013-09-04 06:26:00,
2013-09-04 02:41:00,64.9,64.0,29.87,NNE,24,1.0,2.0,95,0.00,,,0.00,weatherlink.com 1.10,2013-09-04 06:41:00,
2013-09-04 02:56:00,64.6,63.0,29.87,NNE,24,0.0,0.0,95,0.00,,,0.00,weatherlink.com 1.10,2013-09-04 06:56:00,
2013-09-04 03:11:00,64.6,63.0,29.87,NE,35,0.0,0.0,95,0.00,,,0.00,weatherlink.com 1.10,2013-09-04 07:11:00,
2013-09-04 03:26:00,64.3,63.0,29.86,NE,35,0.0,1.0,96,0.00,,,0.00,weatherlink.com 1.10,2013-09-04 07:26:00,
2013-09-04 03:41:00,64.1,63.0,29.86,NE,35,1.0,0.0,96,0.00,,,0.00,weatherlink.com 1.10,2013-09-04 07:41:00,
2013-09-04 03:56:00,63.7,63.0,29.87,NE,35,0.0,1.0,96,0.00,,,0.00,weatherlink.com 1.10,2013-09-04 07:56:00,
2013-09-04 04:11:00,63.5,62.0,29.87,NE,35,1.0,2.0,96,0.00,,,0.00,weatherlink.com 1.10,2013-09-04 08:11:00,
2013-09-04 04:26:00,63.3,63.0,29.88,NE,35,0.0,0.0,97,0.00,,,0.00,weatherlink.com 1.10,2013-09-04 08:26:00,
2013-09-04 04:41:00,63.0,62.0,29.88,NE,35,2.0,3.0,96,0.00,,,0.00,weatherlink.com 1.10,2013-09-04 08:41:00,
2013-09-04 04:56:00,63.2,62.0,29.88,East,85,1.0,5.0,97,0.00,,,0.00,weatherlink.com 1.10,2013-09-04 08:56:00,
2013-09-04 05:11:00,63.1,62.0,29.89,ENE,61,0.0,0.0,97,0.00,,,0.00,weatherlink.com 1.10,2013-09-04 09:11:00,
2013-09-04 05:26:00,62.9,62.0,29.89,ENE,61,0.0,1.0,96,0.00,,,0.00,weatherlink.com 1.10,2013-09-04 09:26:00,
2013-09-04 05:41:00,63.0,62.0,29.89,ENE,61,1.0,2.0,97,0.00,,,0.00,weatherlink.com 1.10,2013-09-04 09:41:00,
2013-09-04 05:56:00,62.8,62.0,29.90,NE,36,1.0,3.0,97,0.00,,,0.00,weatherlink.com 1.10,2013-09-04 09:56:00,
2013-09-04 06:11:00,62.3,61.0,29.90,NE,36,0.0,1.0,96,0.00,,,0.00,weatherlink.com 1.10,2013-09-04 10:11:00,
2013-09-04 06:26:00,62.3,62.0,29.91,NE,36,0.0,3.0,97,0.00,,,0.00,weatherlink.com 1.10,2013-09-04 10:26:00,
2013-09-04 06:41:00,61.9,61.0,29.92,NE,36,0.0,2.0,97,0.00,,,0.00,weatherlink.com 1.10,2013-09-04 10:41:00,
2013-09-04 06:56:00,62.1,61.0,29.92,NE,44,2.0,3.0,97,0.00,,,0.00,weatherlink.com 1.10,2013-09-04 10:56:00,
2013-09-04 07:11:00,62.3,62.0,29.92,NE,38,3.0,3.0,97,0.00,,,0.00,weatherlink.com 1.10,2013-09-04 11:11:00,
2013-09-04 07:26:00,62.7,62.0,29.93,NE,36,1.0,3.0,97,0.00,,,0.00,weatherlink.com 1.10,2013-09-04 11:26:00,
2013-09-04 07:41:00,63.2,62.0,29.94,NE,54,0.0,2.0,97,0.00,,,0.00,weatherlink.com 1.10,2013-09-04 11:41:00,
2013-09-04 07:56:00,64.2,63.0,29.95,NNE,26,2.0,4.0,96,0.00,,,0.00,weatherlink.com 1.10,2013-09-04 11:56:00,
2013-09-04 08:11:00,65.6,64.0,29.95,NNE,28,2.0,3.0,94,0.00,,,0.00,weatherlink.com 1.10,2013-09-04 12:11:00,
2013-09-04 08:26:00,67.2,66.0,29.96,NNE,28,1.0,2.0,94,0.00,,,0.00,weatherlink.com 1.10,2013-09-04 12:26:00,
2013-09-04 08:41:00,68.9,67.0,29.96,NNE,28,0.0,1.0,92,0.00,,,0.00,weatherlink.com 1.10,2013-09-04 12:41:00,
2013-09-04 08:56:00,70.3,66.0,29.97,NNE,28,0.0,2.0,87,0.00,,,0.00,weatherlink.com 1.10,2013-09-04 12:56:00,
2013-09-04 09:12:00,70.9,66.0,29.97,NNE,30,1.0,3.0,85,0.00,,,0.00,weatherlink.com 1.10,2013-09-04 13:12:00,
2013-09-04 09:27:00,71.5,65.0,29.97,NNE,30,0.0,2.0,81,0.00,,,0.00,weatherlink.com 1.10,2013-09-04 13:27:00,
2013-09-04 09:42:00,72.4,64.0,29.98,North,351,2.0,2.0,76,0.00,,,0.00,weatherlink.com 1.10,2013-09-04 13:42:00,
2013-09-04 09:57:00,73.8,65.0,29.98,East,90,2.0,5.0,74,0.00,,,0.00,weatherlink.com 1.10,2013-09-04 13:57:00,
2013-09-04 10:12:00,74.7,64.0,29.98,ESE,102,0.0,6.0,69,0.00,,,0.00,weatherlink.com 1.10,2013-09-04 14:12:00,
2013-09-04 10:27:00,75.6,65.0,29.98,East,89,2.0,6.0,69,0.00,,,0.00,weatherlink.com 1.10,2013-09-04 14:27:00,
2013-09-04 10:42:00,75.9,66.0,29.98,NE,55,2.0,6.0,71,0.00,,,0.00,weatherlink.com 1.10,2013-09-04 14:42:00,
2013-09-04 10:57:00,76.4,66.0,29.98,NNE,28,2.0,4.0,70,0.00,,,0.00,weatherlink.com 1.10,2013-09-04 14:57:00,
2013-09-04 11:12:00,77.0,65.0,29.98,NW,317,0.0,5.0,66,0.00,,,0.00,weatherlink.com 1.10,2013-09-04 15:12:00,
2013-09-04 11:27:00,78.0,64.0,29.98,South,189,3.0,5.0,62,0.00,,,0.00,weatherlink.com 1.10,2013-09-04 15:27:00,
2013-09-04 11:42:00,78.0,64.0,29.98,South,169,0.0,6.0,63,0.00,,,0.00,weatherlink.com 1.10,2013-09-04 15:42:00,
2013-09-04 11:57:00,79.0,65.0,29.98,South,184,1.0,5.0,63,0.00,,,0.00,weatherlink.com 1.10,2013-09-04 15:57:00,
2013-09-04 12:12:00,78.5,65.0,29.98,ENE,70,0.0,4.0,64,0.00,,,0.00,weatherlink.com 1.10,2013-09-04 16:12:00,
2013-09-04 12:27:00,78.7,66.0,29.98,ENE,72,2.0,3.0,65,0.00,,,0.00,weatherlink.com 1.10,2013-09-04 16:27:00,
2013-09-04 12:42:00,79.4,67.0,29.98,East,95,1.0,3.0,67,0.00,,,0.00,weatherlink.com 1.10,2013-09-04 16:42:00,
2013-09-04 12:57:00,80.1,65.0,29.97,East,83,0.0,5.0,61,0.00,,,0.00,weatherlink.com 1.10,2013-09-04 16:57:00,
2013-09-04 13:12:00,80.7,67.0,29.97,NNE,18,0.0,3.0,63,0.00,,,0.00,weatherlink.com 1.10,2013-09-04 17:12:00,
2013-09-04 13:27:00,81.0,66.0,29.97,ENE,77,0.0,5.0,61,0.00,,,0.00,weatherlink.com 1.10,2013-09-04 17:27:00,
2013-09-04 13:42:00,81.6,68.0,29.96,SSW,194,0.0,6.0,63,0.00,,,0.00,weatherlink.com 1.10,2013-09-04 17:42:00,
2013-09-04 13:57:00,81.9,69.0,29.96,SW,231,5.0,7.0,64,0.00,,,0.00,weatherlink.com 1.10,2013-09-04 17:57:00,
2013-09-04 14:12:00,82.8,68.0,29.96,South,190,5.0,7.0,62,0.00,,,0.00,weatherlink.com 1.10,2013-09-04 18:12:00,
2013-09-04 14:27:00,81.2,68.0,29.96,South,186,2.0,5.0,64,0.00,,,0.00,weatherlink.com 1.10,2013-09-04 18:27:00,
2013-09-04 14:42:00,81.8,69.0,29.96,South,182,5.0,7.0,66,0.00,,,0.00,weatherlink.com 1.10,2013-09-04 18:42:00,
2013-09-04 14:57:00,82.4,69.0,29.95,SSE,163,2.0,8.0,63,0.00,,,0.00,weatherlink.com 1.10,2013-09-04 18:57:00,
2013-09-04 15:12:00,82.9,68.0,29.95,ENE,78,3.0,5.0,62,0.00,,,0.00,weatherlink.com 1.10,2013-09-04 19:12:00,
2013-09-04 15:27:00,82.9,68.0,29.95,SSE,155,1.0,5.0,61,0.00,,,0.00,weatherlink.com 1.10,2013-09-04 19:27:00,
2013-09-04 15:42:00,83.5,69.0,29.94,SSE,156,0.0,0.0,61,0.00,,,0.00,weatherlink.com 1.10,2013-09-04 19:42:00,
2013-09-04 15:57:00,83.6,68.0,29.94,WSW,257,4.0,8.0,60,0.00,,,0.00,weatherlink.com 1.10,2013-09-04 19:57:00,
2013-09-04 16:12:00,84.0,71.0,29.93,ESE,118,2.0,5.0,64,0.00,,,0.00,weatherlink.com 1.10,2013-09-04 20:12:00,
2013-09-04 16:27:00,83.8,70.0,29.93,SE,127,5.0,6.0,63,0.00,,,0.00,weatherlink.com 1.10,2013-09-04 20:27:00,
2013-09-04 16:42:00,84.1,68.0,29.93,SW,225,5.0,7.0,58,0.00,,,0.00,weatherlink.com 1.10,2013-09-04 20:42:00,
2013-09-04 16:57:00,84.5,69.0,29.93,SSW,206,2.0,5.0,60,0.00,,,0.00,weatherlink.com 1.10,2013-09-04 20:57:00,
2013-09-04 17:12:00,84.5,69.0,29.92,SE,135,1.0,4.0,60,0.00,,,0.00,weatherlink.com 1.10,2013-09-04 21:12:00,
2013-09-04 17:27:00,84.4,68.0,29.92,SSE,152,2.0,6.0,58,0.00,,,0.00,weatherlink.com 1.10,2013-09-04 21:27:00,
2013-09-04 17:42:00,84.1,68.0,29.92,West,264,2.0,5.0,59,0.00,,,0.00,weatherlink.com 1.10,2013-09-04 21:42:00,
2013-09-04 17:57:00,84.7,69.0,29.92,SE,135,2.0,5.0,59,0.00,,,0.00,weatherlink.com 1.10,2013-09-04 21:57:00,
2013-09-04 18:12:00,83.8,68.0,29.92,West,281,1.0,4.0,60,0.00,,,0.00,weatherlink.com 1.10,2013-09-04 22:12:00,
2013-09-04 18:27:00,83.6,68.0,29.92,SE,129,0.0,3.0,60,0.00,,,0.00,weatherlink.com 1.10,2013-09-04 22:27:00,
2013-09-04 18:42:00,83.6,68.0,29.92,SE,129,0.0,2.0,59,0.00,,,0.00,weatherlink.com 1.10,2013-09-04 22:42:00,
2013-09-04 18:57:00,83.2,69.0,29.92,ESE,120,0.0,2.0,63,0.00,,,0.00,weatherlink.com 1.10,2013-09-04 22:57:00,
2013-09-04 19:12:00,82.6,71.0,29.92,ESE,120,0.0,1.0,67,0.00,,,0.00,weatherlink.com 1.10,2013-09-04 23:12:00,
2013-09-04 19:27:00,80.7,71.0,29.92,ESE,120,0.0,1.0,71,0.00,,,0.00,weatherlink.com 1.10,2013-09-04 23:27:00,
2013-09-04 19:42:00,78.0,70.0,29.92,ENE,61,2.0,3.0,76,0.00,,,0.00,weatherlink.com 1.10,2013-09-04 23:42:00,
2013-09-04 19:57:00,75.7,70.0,29.93,ENE,61,0.0,1.0,83,0.00,,,0.00,weatherlink.com 1.10,2013-09-04 23:57:00,
2013-09-04 20:12:00,74.1,70.0,29.93,ENE,61,0.0,2.0,86,0.00,,,0.00,weatherlink.com 1.10,2013-09-05 00:12:00,
2013-09-04 20:27:00,73.0,69.0,29.94,ENE,61,1.0,2.0,88,0.00,,,0.00,weatherlink.com 1.10,2013-09-05 00:27:00,
2013-09-04 20:42:00,72.1,69.0,29.95,ENE,61,0.0,1.0,90,0.00,,,0.00,weatherlink.com 1.10,2013-09-05 00:42:00,
2013-09-04 20:57:00,71.3,68.0,29.95,ENE,61,0.0,3.0,90,0.00,,,0.00,weatherlink.com 1.10,2013-09-05 00:57:00,
2013-09-04 21:13:00,71.0,68.0,29.96,NE,40,3.0,4.0,90,0.00,,,0.00,weatherlink.com 1.10,2013-09-05 01:13:00,
2013-09-04 21:28:00,70.8,68.0,29.96,NE,40,1.0,3.0,90,0.00,,,0.00,weatherlink.com 1.10,2013-09-05 01:28:00,
2013-09-04 21:43:00,70.2,68.0,29.97,NE,38,0.0,5.0,91,0.00,,,0.00,weatherlink.com 1.10,2013-09-05 01:43:00,
2013-09-04 21:58:00,69.9,68.0,29.97,NE,45,0.0,2.0,92,0.00,,,0.00,weatherlink.com 1.10,2013-09-05 01:58:00,
2013-09-04 22:13:00,69.5,68.0,29.97,NE,45,1.0,2.0,93,0.00,,,0.00,weatherlink.com 1.10,2013-09-05 02:13:00,
2013-09-04 22:28:00,69.2,67.0,29.98,NE,45,0.0,3.0,93,0.00,,,0.00,weatherlink.com 1.10,2013-09-05 02:28:00,
2013-09-04 22:43:00,68.8,67.0,29.98,NE,45,0.0,1.0,93,0.00,,,0.00,weatherlink.com 1.10,2013-09-05 02:43:00,
2013-09-04 22:58:00,69.1,67.0,29.99,NE,51,0.0,3.0,94,0.00,,,0.00,weatherlink.com 1.10,2013-09-05 02:58:00,
2013-09-04 23:13:00,69.0,67.0,29.99,NE,39,1.0,3.0,94,0.00,,,0.00,weatherlink.com 1.10,2013-09-05 03:13:00,
2013-09-04 23:28:00,68.7,67.0,30.00,NE,39,1.0,2.0,94,0.00,,,0.00,weatherlink.com 1.10,2013-09-05 03:28:00,
2013-09-04 23:43:00,69.3,67.0,29.99,NE,39,3.0,5.0,93,0.00,,,0.00,weatherlink.com 1.10,2013-09-05 03:43:00,
2013-09-04 23:58:00,69.2,67.0,29.99,NE,42,3.0,4.0,93,0.00,,,0.00,weatherlink.com 1.10,2013-09-05 03:58:00,